Veracruz Airport, Mexico

1:47 PM CDT on July 26, 2017 (GMT -0500)
Gen Heriberto Jara International

Weather History for MMVR - May, 2013

Change the Weather History Date:

Thursday, May 30, 2013

  Actual Average Record
Temperature  
Mean Temperature 84 °F -  
Max Temperature 91 °F 89 °F 104 °F (2004)
Min Temperature 77 °F 74 °F 71 °F (1999)
Cooling Degree Days 19    
Growing Degree Days 34 (Base 50)    
Moisture  
Dew Point 72 °F    
Average Humidity 70    
Maximum Humidity 89    
Minimum Humidity 49    
Precipitation  
Precipitation 0.00 in - - ()
Sea Level Pressure  
Sea Level Pressure 29.75 in    
Wind  
Wind Speed 6 mph ()    
Max Wind Speed 14 mph    
Max Gust Speed -    
Visibility 7.0 miles    
Events      
Averages and records for this station are not official NWS values.
T = Trace of Precipitation, MM = Missing Value Source: Averaged Metar Reports

Daily Weather History Graph

Daily Weather History Graph

Search for Another Location

Airport or City:

Trip Planner

Search our weather history database for the weather conditions in past years. The results will help you decide how hot, cold, wet, or windy it might be!

Date:

Astronomy

May. 30, 2013 Rise Set
Actual Time 6:46 AM CDT 7:58 PM CDT
Civil Twilight 6:22 AM CDT 8:22 PM CDT
Nautical Twilight 5:53 AM CDT 8:50 PM CDT
Astronomical Twilight 5:24 AM CDT 9:20 PM CDT
Moon 12:26 AM CDT (5/30) 12:25 PM CDT (5/30)
Length of Visible Light 14h 00m
Length of Day
13h 11m
Waning Gibbous, 62% of the Moon is Illuminated
May 30
Waning Gibbous
May 31
Last Quarter
Jun 8
New
Jun 16
First Quarter
Jun 23
Full

Hourly Weather History & Observations

Time (CDT) Temp. Heat Index Dew Point Humidity Pressure Visibility Wind Dir Wind Speed Gust Speed Precip Events Conditions
5:09 AM 78.8 °F - 75.2 °F 89% 29.73 in 7.0 mi ENE 5.8 mph - N/A   Mostly Cloudy
5:53 AM 78.8 °F - 75.2 °F 89% 29.74 in 7.0 mi SE 4.6 mph - N/A   Mostly Cloudy
6:51 AM 78.8 °F - 73.4 °F 83% 29.74 in 7.0 mi ESE 3.5 mph - N/A   Mostly Cloudy
7:49 AM 77.0 °F - 73.4 °F 89% 29.77 in 7.0 mi SSW 3.5 mph - N/A   Mostly Cloudy
8:59 AM 78.8 °F - 73.4 °F 83% 29.78 in 7.0 mi Calm Calm - N/A   Mostly Cloudy
9:46 AM 84.2 °F 88.4 °F 69.8 °F 62% 29.75 in 7.0 mi SSW 3.5 mph - N/A   Mostly Cloudy
10:42 AM 84.2 °F 88.4 °F 69.8 °F 62% 29.78 in 7.0 mi Calm Calm - N/A   Mostly Cloudy
11:42 AM 89.6 °F 94.7 °F 69.8 °F 52% 29.77 in 7.0 mi East 5.8 mph - N/A   Mostly Cloudy
12:43 PM 89.6 °F 94.7 °F 69.8 °F 52% 29.74 in 7.0 mi ENE 8.1 mph - N/A   Mostly Cloudy
1:43 PM 91.4 °F 96.8 °F 69.8 °F 49% 29.75 in 7.0 mi ENE 8.1 mph - N/A   Mostly Cloudy
2:42 PM 91.4 °F 96.8 °F 69.8 °F 49% 29.75 in 7.0 mi NE 9.2 mph - N/A   Mostly Cloudy
3:45 PM 87.8 °F 92.6 °F 69.8 °F 55% 29.72 in 7.0 mi East 12.7 mph - N/A   Mostly Cloudy
4:47 PM 87.8 °F 93.8 °F 71.6 °F 58% 29.72 in 7.0 mi ENE 13.8 mph - N/A   Mostly Cloudy
5:49 PM 86.0 °F 93.4 °F 73.4 °F 66% 29.72 in 7.0 mi ENE 13.8 mph - N/A   Scattered Clouds
6:45 PM 84.2 °F 90.9 °F 73.4 °F 70% 29.71 in 7.0 mi NE 9.2 mph - N/A   Scattered Clouds
7:43 PM 82.4 °F 88.2 °F 73.4 °F 74% 29.72 in 7.0 mi NE 10.4 mph - N/A   Scattered Clouds
8:53 PM 82.4 °F 88.2 °F 73.4 °F 74% 29.74 in 7.0 mi NE 9.2 mph - N/A   Scattered Clouds
9:45 PM 80.6 °F 85.4 °F 73.4 °F 79% 29.75 in 7.0 mi NE 8.1 mph - N/A   Scattered Clouds
10:49 PM 80.6 °F 85.4 °F 73.4 °F 79% 29.81 in 7.0 mi NE 11.5 mph - N/A   Scattered Clouds
11:49 PM 80.6 °F 86.2 °F 75.2 °F 84% 29.83 in 7.0 mi North 4.6 mph - N/A   Mostly Cloudy